Ask Your Question

dan's profile - karma

dan's karma change log

10 0 rplidar A2 amcl parameters ( 2019-11-05 21:02:34 -0600 )

0 -10 rplidar A2 amcl parameters ( 2019-11-05 21:02:32 -0600 )

10 0 rplidar A2 amcl parameters ( 2019-11-05 21:02:21 -0600 )

0 -10 rplidar A2 amcl parameters ( 2019-11-05 21:02:19 -0600 )

10 0 rplidar A2 amcl parameters ( 2019-11-05 21:02:16 -0600 )

20 0 Changed by moderator. Reason: Compensated by admin during recalculation of karma ( 2019-06-02 22:22:36 -0600 )

10 0 gazebo_ros_bumper_controller not updating bumper states ( 2019-05-20 01:17:18 -0600 )

15 0 gazebo_ros_bumper_controller not updating bumper states ( 2019-05-20 01:17:17 -0600 )

10 0 rosserial lost sync with device ( 2019-01-12 16:16:27 -0600 )

10 0 robot_localization how to handle accelerations when tilted ( 2018-10-24 05:07:34 -0600 )

15 0 Running a raspberry pi(wiring pi) node with roslaunch ( 2018-08-05 13:20:08 -0600 )

10 0 rosserial lost sync with device ( 2018-08-02 23:24:21 -0600 )

10 0 in amcl amcl_node.cpp what does the draw_weight_as_height_ parameter do? ( 2018-07-26 01:08:10 -0600 )

10 0 tango ros streamer has java runtime exception ( 2018-06-04 16:31:28 -0600 )

10 0 Combining AMCL, gmapping, odometry? ( 2018-04-25 05:06:34 -0600 )

10 0 how to display robot_pose_ekf/odom_combined in rviz ( 2018-03-21 10:01:16 -0600 )

15 0 ImportError: No module named moveit_commander ( 2018-03-20 17:38:38 -0600 )

2 0 Does ROS Tango work? ( 2018-01-26 23:34:52 -0600 )

15 0 Transforming linear acceleration data of IMU to linear velocity data ( 2018-01-08 02:06:09 -0600 )

10 0 Does ROS Tango work? ( 2017-10-18 16:47:52 -0600 )

10 0 Does ROS Tango work? ( 2017-10-18 11:27:33 -0600 )

10 0 Combining AMCL, gmapping, odometry? ( 2017-10-05 05:39:12 -0600 )

2 0 ROS_MASTER_URI for amazon EC2 server ( 2017-03-16 21:42:12 -0600 )

10 0 Does ROS Tango work? ( 2017-01-10 13:22:27 -0600 )

10 0 how to display robot_pose_ekf/odom_combined in rviz ( 2016-12-24 19:51:24 -0600 )

15 0 Combining AMCL, gmapping, odometry? ( 2016-05-09 20:49:24 -0600 )

10 0 amcl estimation quality ( 2016-04-26 10:21:21 -0600 )

15 0 navsat_transform missing child_frame_id? ( 2016-03-29 19:03:09 -0600 )

10 0 navsat_transform missing child_frame_id? ( 2016-03-29 19:02:45 -0600 )

10 0 how to remove forward bias in move_base ( 2016-02-05 08:46:28 -0600 )

10 0 robot_localization lag ( 2016-01-04 03:24:44 -0600 )

2 0 robot_localization lag ( 2016-01-02 11:51:14 -0600 )

10 0 robot_localization lag ( 2015-11-17 10:51:43 -0600 )

2 0 amcl estimation quality ( 2015-09-26 22:23:19 -0600 )

0 -2 amcl estimation quality ( 2015-09-22 21:01:40 -0600 )

2 0 amcl estimation quality ( 2015-09-22 20:44:16 -0600 )

10 0 amcl estimation quality ( 2015-09-22 07:53:22 -0600 )

10 0 amcl estimation quality ( 2015-09-22 07:11:08 -0600 )

2 0 robot_localization failed to transform warning ( 2015-09-04 16:02:55 -0600 )

2 0 navsat_transform missing child_frame_id? ( 2015-08-14 10:52:46 -0600 )

2 0 robot_localization how to handle accelerations when tilted ( 2015-08-13 23:44:51 -0600 )

2 0 robot_localization delayed yaw response ( 2015-08-12 15:54:27 -0600 )

10 0 robot_localization delayed yaw response ( 2015-08-12 02:27:18 -0600 )

2 0 how to remove forward bias in move_base ( 2015-04-19 20:45:29 -0600 )

15 0 Still can not build android_tutorial_camera ( 2015-03-02 18:11:46 -0600 )

15 0 rostango multiple dex files ( 2015-02-26 13:17:24 -0600 )

15 0 ROS tango samples don't run ( 2015-02-06 16:55:21 -0600 )

15 0 rostango unsupported method at runtime ( 2015-02-06 16:53:13 -0600 )

10 0 rostango unsupported method at runtime ( 2014-12-13 23:58:59 -0600 )

10 0 ROS tango samples don't run ( 2014-12-10 22:43:09 -0600 )

15 0 rosserial_arduino IDE ARDUINO error ( 2014-10-27 19:29:27 -0600 )

2 0 layered costmaps map_topic ( 2014-10-19 17:35:27 -0600 )

2 0 raring repositories for odroid U3 ROS build ( 2014-07-18 17:31:07 -0600 )

10 0 where did turtle_tf_sensor.launch go? ( 2014-07-07 16:01:20 -0600 )

10 0 rosserial lost sync with device ( 2014-06-02 17:53:11 -0600 )

10 0 how to increase rosserial buffer size ( 2014-03-25 04:44:18 -0600 )

2 0 pocketsphinx recognizer.py has initial incorrect output ( 2013-12-23 13:24:06 -0600 )

15 0 with rosserial, changes to arduino library .h files have no effect ( 2013-11-06 13:29:40 -0600 )

15 0 how to display robot_pose_ekf/odom_combined in rviz ( 2013-11-06 13:02:52 -0600 )

10 0 nav stack missing from UbuntuARM install ( 2013-10-27 23:18:57 -0600 )

15 0 robot_pose_ekf pubs on robot_pose_ekf/odom but not on robot_pose_ekf/odom_combined ( 2013-09-10 23:28:34 -0600 )

2 0 how to increase rosserial buffer size ( 2013-08-24 16:05:30 -0600 )

2 0 rosserial non-unique executable ( 2013-08-19 11:39:21 -0600 )

2 0 how to publish pitch, roll, yaw to robot_pose_ekf ( 2013-08-06 15:39:11 -0600 )

0 -2 Does ros_arduino_bridge support a gyro or imu? ( 2013-08-04 11:45:46 -0600 )

2 0 Does ros_arduino_bridge support a gyro or imu? ( 2013-08-04 11:45:24 -0600 )

2 0 simple navigation goals fails compile, boost link error ( 2013-01-27 17:09:22 -0600 )

10 0 Missing resource hokuyo_node ( 2012-11-14 15:33:56 -0600 )

10 0 where did turtle_tf_sensor.launch go? ( 2012-06-21 20:07:49 -0600 )

0 -10 where's the carrot in tf tutorial? ( 2012-06-14 06:18:56 -0600 )

10 0 Unable to get data in callback in Arduino ( 2012-06-05 20:54:31 -0600 )

15 0 getting started with ROS Android: error in building rosjava_core ( 2012-05-24 07:52:26 -0600 )

10 0 Build failed when build the android_core in rosjava ( 2012-05-21 02:02:39 -0600 )

10 0 getting started with ROS Android: error in building rosjava_core ( 2012-05-18 21:20:38 -0600 )

10 0 getting started with ROS Android: error in building rosjava_core ( 2012-05-15 08:21:27 -0600 )

10 0 remote turtlebot powerup? ( 2011-12-16 08:49:04 -0600 )

2 0 rosserial lost sync with device ( 2011-09-29 19:54:04 -0600 )

2 0 rosserial spinOnce() blocks if not connected to ROS ( 2011-09-19 16:44:37 -0600 )

10 0 rosserial spinOnce() blocks if not connected to ROS ( 2011-09-18 04:01:32 -0600 )

10 0 rosserial lost sync with device ( 2011-09-17 02:49:13 -0600 )

2 0 ROS_INFO on rosserial? ( 2011-09-16 10:51:37 -0600 )

10 0 ROS_INFO on rosserial? ( 2011-09-15 13:06:11 -0600 )

2 0 rosserial debs for rosserial_arduino ( 2011-09-15 10:25:55 -0600 )

10 0 rosserial debs for rosserial_arduino ( 2011-09-15 02:58:58 -0600 )

10 0 where's the carrot in tf tutorial? ( 2011-04-24 13:33:25 -0600 )

10 0 where's the carrot in tf tutorial? ( 2011-04-22 02:20:13 -0600 )

10 0 where did turtle_tf_sensor.launch go? ( 2011-03-28 12:49:55 -0600 )

15 0 error in tf tutorial for diamondback ( 2011-03-20 09:19:36 -0600 )

15 0 openNI_camera compiling problem ( 2011-03-02 05:24:34 -0600 )

10 0 openNI_camera compiling problem ( 2011-03-01 19:09:00 -0600 )

15 0 problem with kinect tutorial. ( 2011-02-28 08:56:28 -0600 )

10 0 problem with kinect tutorial. ( 2011-02-27 16:00:28 -0600 )